Wind_Speed
32 30 30 29 28 28 27 26 25 24 24 23 24 24 25 26 28 30 30 31 31 33 34 36 38 39 41 42 42 43 44 44 43 43 43 44 45 47 49 52 55 57 60
33 30 29 29 29 28 27 26 26 25 25 25 25 26 27 28 30 31 31 32 34 35 37 39 40 41 42 42 42 42 43 44 44 45 45 46 48 51 54 57 60 63 65
33 30 30 29 29 28 27 26 26 26 27 27 27 28 29 31 31 32 33 34 36 38 40 42 42 42 42 42 43 43 43 45 48 50 52 54 55 56 57 60 63 65 67
33 30 30 30 29 28 27 27 27 28 28 28 29 30 31 32 32 33 35 37 39 41 42 42 42 42 43 43 44 45 46 49 51 55 59 62 65 67 66 64 64 65 66
33 30 30 30 29 28 27 27 27 28 29 29 30 31 32 33 34 35 37 39 41 42 43 42 42 43 44 45 46 48 51 54 57 60 63 66 69 72 74 73 71 68 67
33 30 31 30 28 28 28 27 27 28 29 30 31 32 33 34 35 37 39 41 42 43 43 43 44 44 46 47 49 52 55 58 62 65 67 69 70 71 73 75 75 74 73
32 30 30 30 29 28 27 27 27 28 29 30 31 32 34 35 37 39 40 41 42 43 44 44 45 46 48 50 53 56 59 62 65 67 69 70 71 72 74 75 76 77 78
31 30 31 30 29 28 27 27 27 28 29 30 31 33 35 37 39 40 41 42 43 44 44 45 46 48 50 53 56 59 62 65 67 68 69 70 71 73 76 79 83 84 84
30 30 30 29 27 27 27 27 27 28 29 31 32 34 36 38 39 40 42 43 44 44 45 47 49 51 53 56 59 62 65 67 68 68 69 70 73 76 80 85 90 94 96
29 29 27 26 26 26 26 26 27 28 29 31 33 34 36 38 40 41 42 43 44 45 47 49 51 54 56 59 63 65 66 67 68 69 71 74 78 82 87 92 97 102 107
27 26 25 24 24 24 25 25 27 28 30 31 33 34 36 39 40 41 43 44 45 47 49 51 54 56 60 62 64 66 67 68 69 72 75 79 84 88 93 98 103 108 113
25 24 23 23 23 23 23 25 26 28 30 31 33 35 37 39 40 42 43 45 47 49 51 54 57 60 62 64 66 66 68 70 72 76 81 86 90 95 100 104 109 113 116
23 22 21 20 21 22 23 24 26 28 30 32 33 36 37 39 41 42 44 46 49 51 54 57 59 62 64 65 66 67 70 73 77 82 87 92 97 101 106 110 113 114 113
21 20 19 19 20 21 22 24 26 28 30 32 34 36 38 40 42 44 46 48 51 53 56 59 62 63 64 65 67 69 73 78 83 89 94 99 103 108 111 113 113 110 104
19 19 19 19 19 21 22 25 27 29 31 33 35 37 39 41 43 45 48 50 53 56 59 61 63 64 65 67 70 73 78 83 89 94 99 104 108 112 113 112 107 100 93
18 18 18 18 19 21 24 26 28 30 32 34 36 38 40 42 45 47 49 52 55 58 60 62 63 65 66 70 74 79 84 90 95 99 104 108 110 111 108 102 95 88 82
17 17 18 19 21 23 25 28 29 31 33 35 37 39 42 44 46 48 51 54 57 59 61 62 64 66 69 74 79 84 89 95 100 104 107 109 108 104 97 89 81 74 67
17 18 19 21 23 25 27 28 30 31 33 36 38 41 43 45 48 51 53 56 58 59 61 63 65 69 74 79 84 89 94 99 103 106 108 106 99 91 85 78 69 60 54
19 20 21 22 24 25 26 28 30 32 35 37 40 42 44 47 50 53 55 57 58 59 62 65 69 74 79 84 90 94 98 102 104 104 102 96 88 80 73 66 57 49 43
19 20 21 22 24 25 26 29 31 34 36 38 41 43 46 49 51 53 55 56 58 60 64 68 73 79 84 89 95 99 102 103 102 98 90 83 76 68 61 53 46 39 33
19 20 21 22 24 25 28 30 32 35 37 39 42 45 48 50 52 53 55 56 59 62 67 72 77 83 89 94 99 102 103 102 97 88 79 70 63 56 49 43 37 31 27
18 19 20 22 24 27 29 31 33 36 39 41 44 46 49 50 51 53 55 58 61 65 70 75 81 87 92 97 100 101 99 95 87 77 68 59 51 44 39 34 28 25 23
17 19 21 24 26 28 30 32 35 38 40 43 45 47 49 50 51 53 56 60 65 69 74 80 85 90 94 98 100 97 91 83 75 66 57 48 41 36 31 26 23 21 20
18 20 22 24 27 29 32 34 37 39 41 44 45 47 48 50 52 56 60 64 69 74 79 84 89 93 96 98 96 89 80 71 63 53 45 38 34 30 25 22 21 19 20
18 21 24 26 29 31 33 36 38 40 42 44 45 47 48 51 54 59 63 68 73 79 84 88 92 95 96 93 88 79 69 61 53 43 36 31 27 24 23 22 20 21 21
20 23 26 28 30 32 34 36 39 41 43 44 45 47 49 53 57 61 67 73 78 83 88 92 94 95 92 85 76 67 60 52 43 35 29 25 21 20 19 19 20 20 20
Wind_Direction
237 237 239 241 244 249 252 253 249 248 249 252 257 264 272 278 284 288 289 289 290 292 293 294 294 295 295 295 295 294 293 292 291 290 289 290 290 291 291 292 292 292 292
234 234 236 238 242 248 252 253 250 249 251 255 260 267 274 279 284 287 288 289 291 293 294 295 295 296 296 296 295 295 294 293 292 292 290 290 292 293 294 295 295 294 294
231 232 234 236 240 245 250 251 251 252 254 257 262 269 275 280 284 286 288 290 292 294 295 296 297 297 297 297 297 296 296 296 296 295 295 294 293 292 293 294 294 294 293
230 230 232 234 237 242 247 250 251 253 255 258 263 269 275 280 283 286 289 291 293 295 296 297 298 298 298 298 298 297 297 298 298 298 298 298 298 297 295 294 294 293 293
228 228 230 233 236 240 245 249 252 254 256 259 264 269 275 279 283 287 289 292 294 296 297 298 298 298 298 298 298 299 299 299 299 299 299 299 299 299 298 297 296 295 295
227 227 230 232 236 240 244 249 252 254 256 260 264 269 275 279 283 287 290 293 295 296 297 298 298 298 298 298 298 299 299 299 299 300 300 300 299 299 299 298 297 297 297
226 227 229 231 235 240 244 249 252 254 257 261 265 270 275 280 284 288 290 293 295 296 297 297 297 297 297 298 298 299 300 300 300 301 301 301 301 301 301 300 299 298 298
223 225 226 229 235 240 246 250 253 255 258 262 267 272 277 281 285 288 291 293 294 296 296 296 296 297 297 298 299 300 301 301 302 302 303 303 303 303 303 303 302 300 300
221 223 225 229 235 240 246 250 254 257 260 265 270 274 279 283 287 290 292 293 294 295 295 296 297 298 299 300 301 302 303 303 304 304 304 304 304 305 305 305 304 304 302
219 221 224 229 234 240 245 251 255 259 263 268 273 277 281 285 288 291 292 294 294 295 296 297 298 299 300 301 303 304 305 305 305 305 305 305 306 306 306 306 306 305 305
215 217 221 227 233 239 246 252 257 262 266 271 275 280 284 287 290 291 293 294 295 296 297 298 300 301 302 303 304 305 306 306 306 306 306 307 307 307 307 307 306 306 306
210 214 219 227 234 242 249 255 260 265 270 274 278 282 286 288 291 292 294 295 296 297 299 300 301 303 304 305 306 306 307 307 307 307 307 308 308 308 307 307 307 307 306
208 214 221 230 239 247 253 258 263 268 273 278 281 284 287 290 292 294 295 296 297 299 301 302 303 305 306 307 307 307 307 308 308 309 309 309 309 309 308 308 308 308 307
210 217 226 236 244 251 257 262 267 272 277 281 284 287 289 291 293 295 296 297 299 301 302 304 305 306 307 307 308 308 309 309 309 310 310 310 310 310 309 309 309 308 307
213 222 231 240 247 254 261 267 272 276 281 284 287 290 292 293 295 297 298 299 301 302 304 305 307 307 308 308 309 310 310 310 311 311 311 311 311 311 312 311 310 309 307
218 227 237 245 253 261 267 272 277 281 284 287 289 292 293 295 297 298 300 301 303 304 306 307 308 308 309 309 310 311 312 312 312 312 312 312 313 313 312 311 310 309 308
226 235 244 253 262 268 273 277 281 284 287 289 291 293 295 296 298 299 301 302 304 306 307 307 308 309 310 311 311 312 313 313 314 314 314 314 314 314 313 311 310 309 308
235 245 254 262 268 272 276 280 283 286 288 290 292 294 296 297 299 300 302 304 306 307 307 309 310 311 311 312 313 314 314 315 315 316 316 316 315 314 313 313 312 312 311
248 255 261 266 271 275 279 282 284 287 289 291 293 295 296 298 300 302 304 306 307 308 309 311 312 312 313 314 314 315 316 316 317 318 318 317 316 316 315 315 316 316 315
255 260 265 270 274 277 280 283 286 288 290 292 293 295 297 299 301 303 305 307 308 310 311 313 313 314 315 316 316 317 317 318 318 319 318 317 317 317 317 318 319 319 319
257 262 268 272 276 279 282 285 287 289 291 292 294 296 299 301 303 305 306 308 310 311 313 314 315 316 317 317 318 319 320 320 321 321 320 319 318 318 319 320 322 325 327
261 266 271 275 279 282 284 287 288 290 292 294 296 299 301 303 304 306 308 310 311 313 314 316 317 317 318 319 320 321 321 322 322 322 322 321 321 321 322 324 327 330 333
267 272 276 280 283 285 286 288 290 292 294 297 299 301 303 304 306 308 310 311 313 314 316 317 318 319 319 320 321 322 322 322 322 323 323 324 324 325 327 329 333 336 340
273 278 281 283 285 286 288 290 293 295 297 299 301 303 305 307 308 310 312 313 315 316 317 318 319 320 321 321 322 323 323 322 323 324 324 325 326 329 332 336 340 344 347
277 281 284 286 287 289 291 293 295 297 299 301 303 305 307 309 311 313 314 316 317 318 319 320 321 322 322 323 323 324 324 324 325 326 326 328 330 333 336 341 346 347 347
283 285 287 288 289 291 292 294 297 299 302 303 305 307 309 311 313 315 317 318 319 320 321 322 322 323 324 324 325 325 326 326 327 329 330 332 335 338 341 343 344 346 346
Height
5751 5754 5757 5759 5762 5764 5766 5767 5769 5771 5773 5774 5774 5774 5774 5773 5772 5771 5769 5767 5764 5762 5760 5757 5754 5751 5747 5744 5740 5735 5731 5728 5725 5722 5719 5715 5710 5707 5702 5697 5693 5688 5684
5743 5747 5750 5753 5756 5758 5759 5761 5763 5765 5766 5767 5768 5768 5768 5767 5766 5764 5762 5759 5757 5755 5752 5749 5745 5742 5738 5734 5730 5726 5722 5718 5714 5711 5708 5706 5703 5697 5691 5685 5679 5674 5669
5736 5740 5744 5747 5750 5752 5754 5755 5757 5758 5760 5761 5761 5761 5761 5760 5758 5756 5754 5752 5750 5747 5743 5740 5736 5732 5728 5724 5720 5716 5712 5707 5702 5698 5694 5690 5688 5686 5683 5676 5668 5660 5654
5729 5734 5737 5740 5743 5746 5748 5750 5751 5752 5753 5754 5755 5754 5754 5752 5751 5749 5747 5744 5741 5738 5734 5730 5726 5722 5718 5714 5710 5705 5701 5697 5692 5686 5679 5673 5667 5662 5662 5662 5654 5646 5639
5722 5727 5730 5733 5737 5740 5742 5743 5745 5746 5747 5748 5748 5747 5746 5745 5743 5741 5739 5736 5733 5729 5725 5721 5717 5712 5708 5704 5699 5695 5690 5685 5679 5673 5667 5660 5652 5643 5636 5635 5633 5627 5620
5715 5720 5723 5727 5731 5734 5736 5737 5739 5740 5740 5741 5740 5740 5739 5737 5735 5733 5730 5727 5723 5719 5716 5712 5707 5703 5699 5694 5689 5684 5678 5672 5665 5658 5651 5644 5636 5629 5620 5614 5609 5604 5598
5708 5713 5717 5721 5724 5727 5729 5731 5732 5733 5733 5733 5733 5732 5731 5729 5727 5725 5722 5719 5715 5710 5706 5702 5698 5693 5689 5684 5679 5673 5666 5659 5651 5644 5635 5626 5617 5609 5600 5593 5587 5583 5578
5701 5706 5710 5714 5717 5720 5723 5724 5725 5726 5726 5726 5726 5725 5723 5721 5719 5716 5713 5710 5706 5702 5697 5693 5688 5684 5679 5673 5667 5660 5653 5644 5636 5628 5619 5610 5601 5591 5581 5571 5562 5557 5556
5694 5699 5704 5708 5711 5714 5716 5718 5719 5719 5719 5719 5718 5717 5715 5712 5710 5707 5704 5700 5696 5692 5688 5683 5678 5673 5667 5661 5654 5646 5638 5629 5620 5612 5603 5594 5584 5574 5562 5550 5537 5526 5522
5688 5693 5698 5702 5705 5707 5709 5711 5712 5712 5712 5711 5710 5709 5706 5704 5701 5698 5695 5691 5687 5682 5678 5673 5668 5662 5655 5648 5640 5632 5623 5614 5604 5595 5586 5576 5566 5555 5542 5529 5515 5498 5484
5683 5687 5692 5696 5699 5701 5703 5705 5705 5705 5705 5704 5702 5700 5698 5695 5692 5689 5685 5681 5677 5672 5667 5662 5656 5649 5642 5634 5626 5617 5608 5598 5588 5578 5568 5557 5546 5534 5520 5505 5490 5473 5453
5677 5682 5686 5690 5693 5695 5697 5698 5698 5698 5697 5696 5695 5692 5690 5686 5683 5680 5676 5672 5667 5662 5656 5650 5644 5636 5628 5619 5611 5602 5592 5582 5572 5561 5549 5537 5524 5511 5495 5480 5464 5446 5426
5673 5677 5681 5685 5687 5689 5691 5692 5691 5691 5690 5689 5687 5684 5681 5678 5674 5670 5666 5662 5656 5651 5644 5638 5630 5622 5614 5605 5596 5587 5577 5565 5554 5541 5528 5515 5501 5486 5470 5453 5435 5416 5398
5669 5673 5676 5679 5682 5684 5684 5685 5684 5684 5682 5681 5678 5675 5672 5669 5665 5661 5656 5651 5645 5639 5632 5625 5617 5608 5600 5591 5581 5571 5560 5548 5535 5521 5506 5490 5474 5457 5440 5423 5404 5385 5368
5665 5668 5671 5674 5676 5677 5678 5677 5677 5676 5674 5672 5669 5666 5663 5659 5655 5650 5645 5639 5633 5626 5619 5611 5603 5594 5585 5575 5565 5555 5543 5530 5516 5500 5483 5466 5448 5428 5408 5389 5371 5354 5339
5660 5663 5666 5668 5670 5670 5670 5670 5669 5667 5665 5663 5660 5657 5653 5649 5644 5640 5634 5628 5621 5613 5605 5597 5589 5579 5570 5559 5548 5536 5524 5510 5494 5478 5461 5442 5422 5402 5383 5363 5345 5328 5314
5656 5658 5660 5662 5663 5663 5663 5662 5660 5659 5656 5654 5651 5647 5643 5639 5634 5629 5623 5616 5608 5601 5592 5583 5575 5565 5554 5543 5531 5518 5504 5488 5471 5452 5434 5416 5396 5375 5357 5341 5327 5313 5299
5651 5653 5654 5655 5656 5655 5655 5654 5652 5650 5648 5645 5641 5638 5633 5629 5624 5618 5611 5604 5596 5587 5579 5569 5560 5549 5538 5526 5513 5499 5485 5467 5448 5427 5406 5387 5370 5351 5334 5321 5309 5298 5287
5646 5647 5648 5648 5648 5648 5647 5645 5644 5642 5639 5636 5632 5628 5624 5619 5613 5606 5599 5592 5583 5574 5565 5555 5544 5533 5521 5507 5493 5478 5463 5446 5427 5406 5383 5361 5345 5331 5316 5303 5293 5285 5277
5640 5641 5641 5641 5641 5640 5639 5638 5636 5633 5630 5627 5623 5619 5614 5608 5601 5595 5587 5579 5571 5562 5552 5541 5529 5517 5504 5488 5472 5455 5439 5424 5408 5388 5366 5345 5328 5314 5302 5291 5283 5276 5269
5633 5634 5634 5634 5634 5633 5632 5630 5628 5625 5622 5618 5613 5609 5603 5597 5590 5583 5575 5567 5559 5550 5540 5529 5515 5500 5485 5469 5450 5431 5411 5394 5379 5363 5347 5331 5316 5303 5293 5284 5276 5269 5263
5627 5628 5628 5628 5627 5626 5624 5622 5619 5616 5613 5608 5604 5598 5592 5586 5579 5571 5563 5555 5546 5536 5525 5514 5500 5483 5465 5448 5430 5411 5390 5370 5355 5342 5329 5317 5305 5295 5287 5279 5272 5266 5261
5622 5622 5621 5621 5619 5618 5616 5614 5611 5607 5603 5598 5593 5587 5581 5574 5567 5559 5551 5542 5532 5522 5511 5498 5484 5468 5449 5430 5411 5393 5374 5357 5342 5329 5317 5306 5297 5290 5282 5276 5270 5265 5259
5616 5615 5615 5614 5612 5610 5608 5605 5602 5598 5593 5588 5583 5576 5570 5563 5555 5547 5538 5529 5518 5507 5494 5481 5467 5451 5432 5413 5395 5379 5361 5346 5333 5321 5310 5301 5292 5285 5279 5274 5268 5262 5257
5610 5610 5608 5607 5605 5602 5600 5597 5593 5588 5583 5578 5572 5566 5559 5552 5544 5535 5525 5515 5503 5489 5476 5462 5446 5430 5415 5395 5377 5360 5347 5334 5323 5313 5304 5297 5290 5283 5277 5271 5266 5261 5255
5604 5603 5601 5599 5597 5594 5591 5588 5583 5579 5573 5568 5562 5555 5548 5541 5533 5523 5512 5499 5486 5471 5455 5439 5424 5407 5391 5375 5361 5348 5334 5323 5314 5306 5299 5293 5287 5281 5276 5270 5265 5260 5255